sat.trackr.live / text

‹ back to catalog

STARLINK-34222

NORAD 64191 · 2025-113X

PAYLOAD ACTIVE UNKNOWN

§ Identity

Operator
Country
US
Launch date
2025-05-28
Launch site
AFETR
Launch vehicle
Mass (kg)
RCS (m²)

Purposes: comms

External: N2YO · Heavens-Above · Gunter

§ Orbital elements

Epoch: 2026-09-20T05:43:31.806048Z

Period
93.85 min
Inclination
53.1577°
Eccentricity
0.0002184
Mean motion
15.34414417 rev/d
Perigee alt
461.2 km
Apogee alt
464.2 km
Semi-major
6,840.8 km
B*
5.3966e-4
RAAN
266.6013°
Arg perigee
65.2492°
Mean anomaly
294.8738°
Rev number
7,482

§ Raw data

STARLINK-342221 64191U 25113X   26263.23856257  .00017909  00000+0  53966-3 0  99972 64191  53.1577 266.6013 0002184  65.2492 294.8738 15.34414417 74824

JSON: /api/v1/satellites/64191 · /tle

For live sub-satellite position, see the globe view (requires WebGL).

§ Visibility from observer

Set your observer location to see the next 7 days of passes ≥ 10°. The values pass through the URL so the page stays shareable.

No JS? Fill the form by hand. The geolocation button needs JavaScript.